Regional Weather Roundup
Issued by NWS Little Rock, AR

Home | Current Version | Previous Version | Text Only | Print | Product List | Glossary Off
Versions: 1 2 3 4 5 6 7 8 9 10 11 12 13 14 15 16 17 18 19 20 21 22 23 24 25 26 27 28 29 30 31 32 33 34 35 36 37 38 39 40 41 42 43 44 45 46 47 48 49 50

000
ASUS44 KLZK 290305
RWRLZK

WEATHER ROUNDUP FOR ARKANSAS
NATIONAL WEATHER SERVICE LITTLE ROCK AR
1000 PM CDT SAT MAY 28 2016

NOTE: "FAIR" INDICATES FEW OR NO CLOUDS BELOW 12,000 FEET WITH NO
SIGNIFICANT WEATHER AND/OR OBSTRUCTIONS TO VISIBILITY.

ARZ001-003-010-029-290400-
NORTHWEST ARKANSAS

CITY           SKY/WX    TMP DP  RH WIND       PRES   REMARKS
FAYETTEVILLE   PTCLDY    66  66 100 CALM      30.04R
FORT SMITH     CLEAR     74  64  71 SE3       30.00R
HARRISON       CLEAR     70  65  84 S5        30.04R
BENTONVILLE    CLEAR     68  61  77 CALM      30.04R
ROGERS           N/A     69  64  84 CALM      30.05R
SILOAM SPGS    CLEAR     70  59  68 CALM      30.04R
HIGHFILL       CLEAR     69  66  90 CALM      30.03R
$$

ARZ004-005-016-290400-
NORTH CENTRAL ARKANSAS

CITY           SKY/WX    TMP DP  RH WIND       PRES   REMARKS
BATESVILLE     CLEAR     73  66  78 SE6       30.02R
FLIPPIN        CLEAR    N/A N/A N/A S6        29.99R
MTN HOME       CLEAR     72  66  81 S6        30.01R
$$

ARZ040-041-290400-
WEST CENTRAL ARKANSAS

CITY           SKY/WX    TMP DP  RH WIND       PRES   REMARKS
MENA           CLEAR     70  68  94 CALM      30.05R
MOUNT IDA      CLEAR     68  65  90 CALM      30.02R FOG
$$

ARZ009-017-025-026-028-290400-
NORTHEAST ARKANSAS

CITY           SKY/WX    TMP DP  RH WIND       PRES   REMARKS
CORNING          N/A     75  73  94 S6        30.01R
JONESBORO      CLEAR     74  69  85 S6        30.02R
NEWPORT        CLEAR     74  71  90 S7        30.03R
WALNUT RIDGE   CLEAR     73  66  78 S9        30.01R
BLYTHEVILLE    CLOUDY    76  70  82 SE7       30.03R
$$

ARZ022-023-033-042-044-290400-
CENTRAL ARKANSAS

CITY           SKY/WX    TMP DP  RH WIND       PRES   REMARKS
LITTLE ROCK    CLEAR     75  66  73 SW5       30.03R
N LITTLE ROCK    N/A     73  67  81 CALM      30.01R
SEARCY         CLEAR     72  70  94 CALM      30.04R
HOT SPRINGS    CLEAR     70  66  87 CALM      30.04R
RUSSELLVILLE   CLEAR     70  67  90 CALM      30.02R
CLINTON        FAIR      68  68 100 CALM      30.04R
$$

ARZ036-290400-
EAST ARKANSAS

CITY           SKY/WX    TMP DP  RH WIND       PRES   REMARKS
WEST MEMPHIS   CLEAR     75  71  87 S3        30.03R
$$

ARZ050-053-066-070-073-290400-
SOUTHWEST ARKANSAS

CITY           SKY/WX    TMP DP  RH WIND       PRES   REMARKS
ARKADELPHIA    FAIR      70  70 100 CALM      30.03R
CAMDEN         CLEAR     70  66  88 CALM      30.02R
TEXARKANA      CLEAR     72  69  90 E3        30.02R
EL DORADO      CLEAR     71  70  96 E5        30.02R
DE QUEEN       CLOUDY    71  69  93 E3        30.01R
$$

ARZ056-057-069-290400-
SOUTHEAST ARKANSAS

CITY           SKY/WX    TMP DP  RH WIND       PRES   REMARKS
PINE BLUFF     CLEAR     72  69  90 S6        30.03R
STUTTGART      CLEAR     75  66  73 SE7       30.03R
MONTICELLO     CLEAR     74  71  91 CALM      30.04R

$$





USA.gov is the U.S. government's official web portal to all federal, state and local government web resources and services.